Home   Weather   Gonda   Past weeks
Flag for India

Past Weather in Gonda, Uttar Pradesh, India — Yesterday and Last 2 Weeks

Now
84 °F

Fog.


Feels Like: 101 °F
Forecast: 94 / 82 °F
Wind: 2 mph from North

Location: Lucknow / Amausi

Current Time: Jul 21, 2019 at 6:29:35 am

Latest Report: Jul 21, 2019 at 6:00 am


Visibility: 2 mi

Pressure: 29.59 "Hg

Humidity: 94%

Dew Point: 82 °F

Location of GondaLocation

Past Weather in Gonda — Graph

°F

Gonda Temperature Yesterday

Maximum temperature yesterday: 97 °F (at 2:30 pm)
Minimum temperature yesterday: 84 °F (at 1:30 am)
Average temperature yesterday: 90 °F

High & Low Weather Summary for the Past Weeks

 TemperatureHumidityPressure
High97 °F (Jul 18, 4:00 pm)100% (Jul 6, 4:30 am)29.65 "Hg (Jul 6, 4:30 am)
Low72 °F (Jul 11, 9:00 am)50% (Jul 19, 2:30 pm)29.33 "Hg (Jul 6, 4:30 am)
Average85 °F84%29.49 "Hg
* Reported Jul 6 4:30 am — Jul 21 4:30 am, Gonda. Weather by CustomWeather, © 2019

Note: Actual official high and low records may vary slightly from our data, if they occured in-between our weather recording intervals... More about our weather records

Advertising

Gonda Weather History for the Previous 24 Hours

Scroll right to see more
 ConditionsComfort  
Time TempWeatherWind HumidityBarometerVisibility
4:30 am
Sun, Jul 21
84 °FFog.5 mph94%29.56 "Hg2 mi
4:00 am84 °FFog.5 mph94%29.56 "Hg2 mi
3:30 am84 °FFog.5 mph94%29.56 "Hg2 mi
3:00 am84 °FFog.2 mph94%29.56 "Hg2 mi
2:30 am84 °FFog.2 mph94%29.56 "Hg2 mi
2:00 am84 °FPassing clouds.2 mph94%29.56 "Hg2 mi
1:30 am86 °FPassing clouds.3 mph89%29.59 "Hg2 mi
1:00 am86 °FPassing clouds.6 mph89%29.59 "Hg2 mi
12:30 am86 °FPassing clouds.5 mph84%29.59 "Hg2 mi
12:00 am86 °FPassing clouds.6 mph79%29.59 "Hg2 mi
11:00 pm
Sat, Jul 20
86 °FPassing clouds.5 mph75%29.59 "Hg2 mi
10:30 pm86 °FPassing clouds.2 mph84%29.59 "Hg2 mi
10:00 pm88 °FPassing clouds.2 mph75%29.59 "Hg2 mi
9:30 pm88 °FPassing clouds.2 mph75%29.56 "Hg2 mi
9:00 pm88 °FPartly cloudy.2 mph75%29.59 "Hg2 mi
8:30 pm88 °FPartly cloudy.3 mph75%29.59 "Hg2 mi
8:00 pm88 °FPartly cloudy.3 mph75%29.56 "Hg2 mi
7:30 pm88 °FPartly cloudy.3 mph75%29.56 "Hg2 mi
7:00 pm90 °FBroken clouds.6 mph75%29.56 "Hg2 mi
6:00 pm93 °FBroken clouds.7 mph67%29.53 "Hg2 mi
5:30 pm97 °FBroken clouds.2 mph53%29.53 "Hg3 mi
5:00 pm97 °FScattered clouds.2 mph53%29.53 "Hg3 mi
4:30 pm97 °FScattered clouds.5 mph53%29.53 "Hg3 mi
4:00 pm97 °FScattered clouds.5 mph53%29.53 "Hg3 mi
3:30 pm97 °FScattered clouds.2 mph53%29.53 "Hg3 mi
3:00 pm97 °FScattered clouds.2 mph53%29.56 "Hg3 mi
2:30 pm97 °FScattered clouds.2 mph56%29.56 "Hg3 mi
2:00 pm95 °FScattered clouds.5 mph56%29.59 "Hg3 mi
1:30 pm95 °FScattered clouds.5 mph60%29.59 "Hg3 mi
1:00 pm95 °FScattered clouds.5 mph60%29.59 "Hg3 mi
12:30 pm95 °FScattered clouds.6 mph63%29.62 "Hg3 mi
12:00 pm93 °FScattered clouds.6 mph71%29.62 "Hg3 mi
11:00 am93 °FScattered clouds.6 mph63%29.65 "Hg2 mi
10:30 am93 °FScattered clouds.6 mph67%29.65 "Hg2 mi
10:00 am91 °FScattered clouds.6 mph75%29.65 "Hg2 mi
9:30 am91 °FScattered clouds.5 mph75%29.65 "Hg2 mi
9:00 am91 °FHaze.5 mph75%29.65 "Hg2 mi
8:30 am90 °FHaze.2 mph79%29.65 "Hg2 mi
8:00 am90 °FHaze.2 mph84%29.62 "Hg2 mi
7:30 am88 °FHaze.2 mph89%29.62 "Hg2 mi
7:00 am86 °FHaze.2 mph94%29.62 "Hg2 mi
6:30 am86 °FHaze.2 mph89%29.59 "Hg2 mi
6:00 am84 °FHaze.No wind94%29.59 "Hg2 mi
Weather by CustomWeather, © 2019

See weather overview